Waarnemingen

Advertentie
Mijn weer
St-Hubert, België (6476): temperatuur & dauwpunt: 04.07.2020 13:00:00 - 10.07.2020 13:00:00 (CEST)St-Hubert, België (6476): windsnelheid & windstoten: 04.07.2020 13:00:00 - 10.07.2020 13:00:00 (CEST)St-Hubert, België (6476): windrichting: 04.07.2020 13:00:00 - 10.07.2020 13:00:00 (CEST)St-Hubert, België (6476): luchtdruk: 04.07.2020 13:00:00 - 10.07.2020 13:00:00 (CEST)St-Hubert, België (6476): zicht: 04.07.2020 13:00:00 - 10.07.2020 13:00:00 (CEST)
Datum & Tijd tt [°C] td [°C] ff [km/u] ff [kn] fx [km/u] fx [kn] dd ppp [hPa] vv [km]
10.07.2020 13:00:00 13,6 12,6 11 6 36 19 W 1015,0 -
10.07.2020 12:00:00 14,4 12,3 14 8 29 16 WZW 1013,6 35
10.07.2020 11:00:00 13,8 12,7 14 8 - - WZW 1013,2 -
10.07.2020 10:00:00 13,5 12,3 18 10 29 16 WZW 1012,7 26
10.07.2020 09:00:00 13,0 12,1 14 8 29 16 WZW 1012,1 3,6
10.07.2020 08:00:00 13,4 11,7 14 8 - - WZW 1011,6 26
10.07.2020 07:00:00 13,5 11,7 14 8 29 16 W 1011,5 40
10.07.2020 06:00:00 13,6 11,8 11 6 22 12 WZW 1011,4 45
10.07.2020 05:00:00 13,9 11,9 11 6 - - W 1011,7 45
10.07.2020 04:00:00 14,3 12,8 11 6 22 12 W 1011,7 45
10.07.2020 03:00:00 14,9 12,8 14 8 22 12 WNW 1011,9 40
10.07.2020 02:00:00 15,4 12,1 11 6 - - WNW 1011,9 45
10.07.2020 01:00:00 16,4 11,0 4 2 14 8 WNW 1011,9 45
10.07.2020 00:00:00 17,8 12,0 7 4 22 12 NNW 1011,7 45
09.07.2020 23:00:00 18,0 11,7 7 4 - - ZZW 1011,9 45
09.07.2020 22:00:00 17,9 11,9 7 4 11 6 Z 1011,9 45
09.07.2020 21:00:00 21,1 12,8 7 4 18 10 ZZW 1011,6 45
09.07.2020 20:00:00 21,0 11,4 11 6 - - WZW 1012,3 45
09.07.2020 19:00:00 21,3 10,5 18 10 36 19 WZW 1012,6 40
09.07.2020 18:00:00 21,6 10,7 14 8 32 18 WZW 1012,9 45
09.07.2020 17:00:00 22,9 11,8 14 8 - - WZW 1013,0 35
09.07.2020 16:00:00 22,6 13,4 18 10 43 23 WZW 1013,5 40
09.07.2020 15:00:00 22,1 12,8 18 10 36 19 WZW 1013,6 35
09.07.2020 14:00:00 21,4 13,5 18 10 - - ZW 1014,0 29
09.07.2020 13:00:00 20,5 14,6 18 10 36 19 WZW 1014,5 35
09.07.2020 12:00:00 18,2 13,6 18 10 36 19 WZW 1015,0 35
09.07.2020 11:00:00 16,7 14,6 14 8 - - ZW 1015,3 30
09.07.2020 10:00:00 16,0 14,3 14 8 29 16 ZW 1015,4 25
09.07.2020 09:00:00 14,4 13,4 14 8 25 14 ZW 1016,0 9
09.07.2020 08:00:00 13,9 12,9 11 6 - - ZW 1016,2 6
09.07.2020 07:00:00 13,7 12,9 11 6 25 14 WZW 1016,5 0,9
09.07.2020 06:00:00 13,7 12,9 11 6 22 12 ZW 1016,4 0,2
09.07.2020 05:00:00 13,8 12,9 11 6 - - WZW 1016,6 0,3
09.07.2020 04:00:00 13,9 13,0 11 6 18 10 ZW 1016,5 0,2
09.07.2020 03:00:00 14,1 13,2 11 6 18 10 ZW 1016,5 0,7
09.07.2020 02:00:00 14,2 13,4 11 6 - - WZW 1017,0 0,8
09.07.2020 01:00:00 14,4 13,6 11 6 22 12 ZW 1016,9 0,2
09.07.2020 00:00:00 14,4 13,6 11 6 22 12 WZW 1017,4 0,1
08.07.2020 23:00:00 14,4 13,6 14 8 - - W 1017,5 0,3
08.07.2020 22:00:00 14,4 13,7 11 6 25 14 WZW 1017,3 0,5
08.07.2020 21:00:00 14,4 13,6 14 8 32 18 WZW 1017,1 0,4
08.07.2020 20:00:00 14,6 13,6 11 6 - - WZW 1017,0 -
08.07.2020 19:00:00 14,5 13,6 14 8 25 14 WZW 1017,2 2,3
08.07.2020 18:00:00 14,3 13,3 11 6 22 12 WZW 1017,3 -
08.07.2020 17:00:00 13,8 12,9 11 6 - - WZW 1017,6 1,3
08.07.2020 16:00:00 13,5 12,6 11 6 29 16 WZW 1017,6 1,6
08.07.2020 15:00:00 12,8 11,9 14 8 25 14 WZW 1017,6 0,5
08.07.2020 14:00:00 12,3 11,4 14 8 - - WZW 1017,6 0,7
08.07.2020 13:00:00 11,4 10,5 7 4 18 10 ZW 1017,8 3,2
08.07.2020 12:00:00 10,6 9,6 11 6 22 12 WZW 1017,8 2,0
08.07.2020 11:00:00 10,1 9,1 11 6 - - ZW 1017,6 2,0
08.07.2020 10:00:00 9,8 8,6 11 6 29 16 ZW 1017,7 4,5
08.07.2020 09:00:00 9,8 8,0 11 6 29 16 WZW 1017,7 2,7
08.07.2020 08:00:00 10,5 7,4 14 8 - - WZW 1017,4 40
08.07.2020 07:00:00 10,6 7,1 7 4 18 10 ZW 1017,2 40
08.07.2020 06:00:00 10,6 6,6 7 4 22 12 WZW 1017,5 45
08.07.2020 05:00:00 10,3 6,4 7 4 - - WZW 1017,6 45
08.07.2020 04:00:00 11,6 8,5 7 4 11 6 WZW 1017,8 45
08.07.2020 03:00:00 11,6 8,7 7 4 7 4 WZW 1018,3 35
08.07.2020 02:00:00 12,4 8,3 4 2 - - ZW 1018,6 40
08.07.2020 01:00:00 12,6 8,1 4 2 11 6 W 1018,7 45
08.07.2020 00:00:00 12,0 7,5 7 4 11 6 WZW 1019,3 45
07.07.2020 23:00:00 11,6 6,5 7 4 - - ZW 1019,3 45
07.07.2020 22:00:00 13,1 7,1 4 2 14 8 ZW 1019,0 40
07.07.2020 21:00:00 14,5 7,2 7 4 22 12 WZW 1018,8 40
07.07.2020 20:00:00 16,4 6,1 11 6 - - W 1018,5 40
07.07.2020 19:00:00 16,6 6,4 11 6 25 14 W 1018,9 40
07.07.2020 18:00:00 16,5 5,5 11 6 25 14 WZW 1019,2 35
07.07.2020 17:00:00 18,1 6,9 11 6 - - WZW 1019,3 35
07.07.2020 16:00:00 16,5 6,0 11 6 22 12 WZW 1020,0 35
07.07.2020 15:00:00 16,1 6,2 7 4 18 10 W 1020,5 40
07.07.2020 14:00:00 15,5 7,0 7 4 - - W 1021,1 35
07.07.2020 13:00:00 14,7 6,7 7 4 18 10 W 1021,4 35
07.07.2020 12:00:00 14,7 7,6 11 6 22 12 W 1021,7 35
07.07.2020 11:00:00 14,1 6,7 7 4 - - WZW 1021,8 30
07.07.2020 10:00:00 13,1 7,1 7 4 11 6 WZW 1022,1 30
07.07.2020 09:00:00 12,0 7,5 7 4 7 4 WZW 1022,5 30
07.07.2020 08:00:00 10,5 7,2 4 2 - - ZW 1022,7 28
07.07.2020 07:00:00 8,7 6,3 0 0 7 4 N 1022,9 30
07.07.2020 06:00:00 8,9 5,9 7 4 7 4 NW 1023,1 35
07.07.2020 05:00:00 9,4 6,0 7 4 - - NNW 1023,0 40
07.07.2020 04:00:00 8,8 5,5 7 4 11 6 NW 1023,6 45
07.07.2020 03:00:00 8,0 5,1 4 2 7 4 NW 1023,8 35
07.07.2020 02:00:00 9,6 5,7 4 2 - - NW 1023,8 45
07.07.2020 01:00:00 9,3 5,9 11 6 18 10 NW 1023,9 40
07.07.2020 00:00:00 9,7 5,3 11 6 18 10 NW 1023,9 45
06.07.2020 23:00:00 10,2 5,2 7 4 - - NW 1023,6 40
06.07.2020 22:00:00 11,3 5,2 11 6 22 12 NW 1022,8 40
06.07.2020 21:00:00 13,2 5,5 14 8 29 16 NW 1021,9 40
06.07.2020 20:00:00 13,8 5,0 14 8 - - NW 1021,2 35
06.07.2020 19:00:00 15,1 5,2 22 12 43 23 W 1020,4 35
06.07.2020 18:00:00 15,6 5,6 22 12 36 19 W 1019,8 27
06.07.2020 17:00:00 14,9 4,8 18 10 - - W 1019,5 35
06.07.2020 16:00:00 15,0 5,3 22 12 36 19 WNW 1019,2 30
06.07.2020 15:00:00 13,6 6,4 14 8 36 19 W 1019,1 30
06.07.2020 14:00:00 15,1 8,7 14 8 - - W 1018,3 21
06.07.2020 13:00:00 12,8 6,3 18 10 36 19 W 1018,8 30
06.07.2020 12:00:00 11,7 5,5 14 8 32 18 W 1018,5 26
06.07.2020 11:00:00 12,1 6,8 18 10 - - W 1018,1 22
06.07.2020 10:00:00 10,9 6,3 18 10 36 19 W 1017,9 17
06.07.2020 09:00:00 10,0 7,2 18 10 32 18 W 1017,7 13
06.07.2020 08:00:00 9,3 7,1 14 8 - - W 1017,4 13
06.07.2020 07:00:00 8,9 7,1 18 10 29 16 W 1017,1 12
06.07.2020 06:00:00 8,8 7,2 14 8 29 16 W 1016,8 12
06.07.2020 05:00:00 8,5 6,8 11 6 - - W 1016,7 15
06.07.2020 04:00:00 9,0 6,8 14 8 36 19 W 1016,7 16
06.07.2020 03:00:00 9,2 6,5 18 10 36 19 W 1016,9 20
06.07.2020 02:00:00 10,3 7,3 18 10 - - W 1016,6 24
06.07.2020 01:00:00 11,9 9,3 22 12 36 19 W 1015,7 30
06.07.2020 00:00:00 15,0 11,9 18 10 36 19 W 1014,5 45
05.07.2020 23:00:00 15,7 13,0 14 8 - - W 1014,4 45
05.07.2020 22:00:00 17,0 14,2 14 8 40 21 WZW 1013,7 50
05.07.2020 21:00:00 17,7 14,8 18 10 36 19 ZW 1013,4 45
05.07.2020 20:00:00 18,2 14,9 22 12 - - ZW 1013,5 45
05.07.2020 19:00:00 18,2 15,6 18 10 40 21 ZW 1013,8 45
05.07.2020 18:00:00 17,2 15,6 18 10 36 19 ZW 1014,6 28
05.07.2020 17:00:00 17,4 15,0 18 10 - - ZW 1014,8 23
05.07.2020 16:00:00 17,6 14,2 22 12 43 23 ZW 1014,7 30
05.07.2020 15:00:00 17,7 14,2 18 10 43 23 ZW 1014,6 45
05.07.2020 14:00:00 17,9 14,5 22 12 - - ZW 1014,8 45
05.07.2020 13:00:00 17,6 13,9 22 12 43 23 ZW 1015,2 35
05.07.2020 12:00:00 17,8 14,9 22 12 47 25 ZW 1015,2 40
05.07.2020 11:00:00 16,7 15,0 22 12 - - ZW 1015,4 19
05.07.2020 10:00:00 15,6 14,4 14 8 32 18 ZW 1015,8 4,3
05.07.2020 09:00:00 15,3 14,3 14 8 36 19 ZW 1015,3 -
05.07.2020 08:00:00 15,2 14,3 18 10 - - ZW 1015,0 3,8
05.07.2020 07:00:00 15,1 14,2 18 10 40 21 ZW 1015,1 3,0
05.07.2020 06:00:00 15,1 14,2 14 8 36 19 ZW 1015,1 4,1
05.07.2020 05:00:00 15,3 14,2 18 10 - - ZW 1015,3 -
05.07.2020 04:00:00 15,2 14,2 18 10 40 21 ZW 1015,4 3,0
05.07.2020 03:00:00 15,5 14,2 18 10 40 21 ZW 1015,8 16
05.07.2020 02:00:00 15,9 14,0 22 12 - - ZW 1016,0 35
05.07.2020 01:00:00 15,9 14,3 18 10 29 16 ZW 1016,3 40
05.07.2020 00:00:00 15,7 14,3 14 8 29 16 ZW 1016,6 30
04.07.2020 23:00:00 15,3 14,4 14 8 - - ZZW 1016,9 6
04.07.2020 22:00:00 15,3 14,2 14 8 29 16 ZW 1016,9 10
04.07.2020 21:00:00 15,8 13,9 18 10 36 19 ZW 1016,7 26
04.07.2020 20:00:00 16,4 13,8 22 12 - - ZW 1016,7 45
04.07.2020 19:00:00 17,1 13,5 22 12 36 19 ZW 1016,3 40
04.07.2020 18:00:00 17,1 12,9 18 10 43 23 ZW 1016,9 35
04.07.2020 17:00:00 17,1 11,7 22 12 - - ZZW 1017,1 40
04.07.2020 16:00:00 16,9 11,9 22 12 43 23 ZW 1017,0 35
04.07.2020 15:00:00 16,3 10,7 18 10 36 19 ZW 1017,4 40
04.07.2020 14:00:00 16,1 10,7 18 10 - - ZZW 1017,7 35
04.07.2020 13:00:00 16,0 9,9 18 10 36 19 ZW 1017,8 45

tt = temperatuur
td = dauwpunt
ff = windsnelheid
fx = windstoten
dd = windrichting
ppp = luchtdruk
vv = zicht

Weerstations in de omgeving